Time,TemperatureF,DewpointF,PressureIn,WindDirection,WindDirectionDegrees,WindSpeedMPH,WindSpeedGustMPH,Humidity,HourlyPrecipIn,Conditions,Clouds,dailyrainin,SolarRadiationWatts/m^2,SoftwareType,DateUTC
2013-08-28 11:24:00,77.0,65.0,-100.00,SSE,154,12.0,19.0,66,0.00,,,0.00,494.000000,,2013-08-28 17:24:00,
2013-08-28 11:35:00,77.0,65.0,-100.00,SSE,154,12.0,19.0,66,0.00,,,0.00,494.000000,,2013-08-28 17:35:00,
2013-08-28 11:43:00,77.0,65.0,-100.00,SSE,154,12.0,19.0,66,0.00,,,0.00,494.000000,,2013-08-28 17:43:00,
2013-08-28 11:52:00,77.0,65.0,-100.00,SSE,154,12.0,19.0,66,0.00,,,0.00,494.000000,,2013-08-28 17:52:00,
2013-08-28 12:22:00,78.0,67.0,-100.00,SSE,150,9.0,16.0,68,0.00,,,0.00,453.000000,,2013-08-28 18:22:00,
2013-08-28 12:32:00,78.0,67.0,-100.00,SSE,150,9.0,16.0,68,0.00,,,0.00,453.000000,,2013-08-28 18:32:00,
2013-08-28 12:42:00,78.0,67.0,-100.00,SSE,150,9.0,16.0,68,0.00,,,0.00,453.000000,,2013-08-28 18:42:00,
2013-08-28 12:52:00,78.0,67.0,-100.00,SSE,150,9.0,16.0,68,0.00,,,0.00,453.000000,,2013-08-28 18:52:00,
2013-08-28 13:22:00,78.0,67.0,-100.00,SSE,147,5.0,14.0,69,0.00,,,0.00,472.000000,,2013-08-28 19:22:00,
2013-08-28 13:32:00,78.0,67.0,-100.00,SSE,147,5.0,14.0,69,0.00,,,0.00,472.000000,,2013-08-28 19:32:00,
2013-08-28 13:42:00,78.0,67.0,-100.00,SSE,147,5.0,14.0,69,0.00,,,0.00,472.000000,,2013-08-28 19:42:00,
2013-08-28 13:52:00,78.0,67.0,-100.00,SSE,147,5.0,14.0,69,0.00,,,0.00,472.000000,,2013-08-28 19:52:00,
2013-08-28 14:23:00,86.0,63.0,-100.00,SSE,147,11.0,16.0,47,0.00,,,0.00,806.000000,,2013-08-28 20:23:00,
2013-08-28 14:32:00,86.0,63.0,-100.00,SSE,147,11.0,16.0,47,0.00,,,0.00,806.000000,,2013-08-28 20:32:00,
2013-08-28 14:43:00,86.0,63.0,-100.00,SSE,147,11.0,16.0,47,0.00,,,0.00,806.000000,,2013-08-28 20:43:00,
2013-08-28 14:52:00,86.0,63.0,-100.00,SSE,147,11.0,16.0,47,0.00,,,0.00,806.000000,,2013-08-28 20:52:00,
2013-08-28 14:57:00,85.0,65.0,-100.00,SSE,147,9.0,19.0,52,0.00,,,0.00,633.000000,,2013-08-28 20:57:00,
2013-08-28 15:22:00,85.0,65.0,-100.00,SSE,147,9.0,19.0,52,0.00,,,0.00,633.000000,,2013-08-28 21:22:00,
2013-08-28 15:35:00,85.0,65.0,-100.00,SSE,147,9.0,19.0,52,0.00,,,0.00,633.000000,,2013-08-28 21:35:00,
2013-08-28 15:44:00,85.0,65.0,-100.00,SSE,147,9.0,19.0,52,0.00,,,0.00,633.000000,,2013-08-28 21:44:00,
2013-08-28 16:25:00,87.0,64.0,-100.00,SSE,150,11.0,18.0,46,0.00,,,0.00,655.000000,,2013-08-28 22:25:00,
2013-08-28 16:34:00,87.0,64.0,-100.00,SSE,150,11.0,18.0,46,0.00,,,0.00,655.000000,,2013-08-28 22:34:00,
2013-08-28 16:43:00,87.0,64.0,-100.00,SSE,150,11.0,18.0,46,0.00,,,0.00,655.000000,,2013-08-28 22:43:00,
2013-08-28 16:54:00,87.0,64.0,-100.00,SSE,150,11.0,18.0,46,0.00,,,0.00,655.000000,,2013-08-28 22:54:00,
2013-08-28 17:22:00,87.0,65.0,-100.00,SSE,148,11.0,19.0,49,0.00,,,0.00,490.000000,,2013-08-28 23:22:00,
2013-08-28 17:33:00,87.0,65.0,-100.00,SSE,148,11.0,19.0,49,0.00,,,0.00,490.000000,,2013-08-28 23:33:00,
2013-08-28 17:42:00,87.0,65.0,-100.00,SSE,148,11.0,19.0,49,0.00,,,0.00,490.000000,,2013-08-28 23:42:00,
2013-08-28 17:53:00,87.0,65.0,-100.00,SSE,148,11.0,19.0,49,0.00,,,0.00,490.000000,,2013-08-28 23:53:00,
2013-08-28 19:22:00,81.0,62.0,-100.00,SSE,156,7.0,16.0,53,0.00,,,0.00,105.000000,,2013-08-29 01:22:00,
2013-08-28 19:32:00,81.0,62.0,-100.00,SSE,156,7.0,16.0,53,0.00,,,0.00,105.000000,,2013-08-29 01:32:00,
2013-08-28 19:42:00,81.0,62.0,-100.00,SSE,156,7.0,16.0,53,0.00,,,0.00,105.000000,,2013-08-29 01:42:00,
2013-08-28 19:52:00,81.0,62.0,-100.00,SSE,156,7.0,16.0,53,0.00,,,0.00,105.000000,,2013-08-29 01:52:00,
2013-08-28 20:22:00,77.0,61.0,-100.00,SSE,168,6.0,11.0,58,0.00,,,0.00,9.000000,,2013-08-29 02:22:00,
2013-08-28 20:32:00,77.0,61.0,-100.00,SSE,168,6.0,11.0,58,0.00,,,0.00,9.000000,,2013-08-29 02:32:00,
2013-08-28 20:43:00,77.0,61.0,-100.00,SSE,168,6.0,11.0,58,0.00,,,0.00,9.000000,,2013-08-29 02:43:00,
2013-08-28 20:52:00,77.0,61.0,-100.00,SSE,168,6.0,11.0,58,0.00,,,0.00,9.000000,,2013-08-29 02:52:00,
2013-08-28 21:23:00,72.0,60.0,-100.00,South,175,1.0,7.0,67,0.00,,,0.00,0.000000,,2013-08-29 03:23:00,
2013-08-28 21:37:00,72.0,60.0,-100.00,South,175,1.0,7.0,67,0.00,,,0.00,0.000000,,2013-08-29 03:37:00,
2013-08-28 21:45:00,72.0,60.0,-100.00,South,175,1.0,7.0,67,0.00,,,0.00,0.000000,,2013-08-29 03:45:00,
2013-08-28 21:56:00,72.0,60.0,-100.00,South,175,1.0,7.0,67,0.00,,,0.00,0.000000,,2013-08-29 03:56:00,
2013-08-28 22:28:00,76.0,60.0,-100.00,South,174,8.0,16.0,58,-99.99,,,0.00,0.000000,,2013-08-29 04:28:00,
2013-08-28 22:37:00,76.0,60.0,-100.00,South,174,8.0,16.0,58,-99.99,,,0.00,0.000000,,2013-08-29 04:37:00,
2013-08-28 22:45:00,76.0,60.0,-100.00,South,174,8.0,16.0,58,-99.99,,,0.00,0.000000,,2013-08-29 04:45:00,
2013-08-28 22:54:00,76.0,60.0,-100.00,South,174,8.0,16.0,58,-99.99,,,0.00,0.000000,,2013-08-29 04:54:00,
2013-08-28 23:23:00,76.0,52.0,-100.00,South,180,6.0,17.0,43,0.00,,,0.00,0.000000,,2013-08-29 05:23:00,
2013-08-28 23:34:00,76.0,52.0,-100.00,South,180,6.0,17.0,43,0.00,,,0.00,0.000000,,2013-08-29 05:34:00,
2013-08-28 23:42:00,76.0,52.0,-100.00,South,180,6.0,17.0,43,0.00,,,0.00,0.000000,,2013-08-29 05:42:00,
2013-08-28 23:52:00,76.0,52.0,-100.00,South,180,6.0,17.0,43,0.00,,,0.00,0.000000,,2013-08-29 05:52:00,